Location: Bayshore Village Mobile Home Park
(26.6945°N, 81.8642°W)
Time: 21:56:16
(UTC+00:00)

Chandra Rocket (1) - Pass Details

Date: 17 June 2021
Orbit: 357 x 10987 km, 28.4° (Epoch: 31 July)

Event Time Altitude Azimuth Distance (km) Brightness Sun altitude
Exits shadow 09:12:46 19° 250° (WSW) 3,010 4.9 -16.2°
Maximum altitude 09:18:36 75° 168° (SSE) 819 2.5 -15.2°
Drops below altitude 10° 09:22:02 10° 82° (E) 1,713 5.3 -14.6°
Sets 09:23:29 0° 80° (E) 2,381 6.3 -14.3°
